Location: Bothwell
(41.7170°N, 112.2589°W)
Time: 01:43:55
(UTC+00:00)

STARLINK-37339 - Pass Details

Date: 19 April 2026
Orbit: 263 x 265 km, 97.3° (Epoch: 18 April)

Event Time Altitude Azimuth Distance (km) Brightness Sun altitude
Rises 04:06:32 0° 11° (N) 1,902 5.7 -19.7°
Reaches altitude 10° 04:08:22 10° 11° (N) 1,087 4.5 -20.0°
Enters shadow 04:08:31 11° 11° (N) 1,018 4.3 -20.0°
